Skip Page Navigation
NASA JPL Caltech
NASA Logo - Jet Propulsion Laboratory + View the NASA Portal
+ Center for Near-Earth Object Studies
JPL Home Earth Solar System Stars & Galaxies Technology
JPL Solar System Dynamics
BODIES ORBITS EPHEMERIDES TOOLS PHYSICAL DATA DISCOVERY FAQ SITE MAP
JPL Small-Body Database Browser
Search: [ help ]  
413242 (2003 SU213)
Classification: Main-belt Asteroid          SPK-ID: 2413242
Ephemeris | Orbit Diagram | Orbital Elements | Mission Design | Physical Parameters | Discovery Circumstances ]

[ show orbit diagram ]
Orbital Elements at Epoch 2459000.5 (2020-May-31.0) TDB
Reference: JPL 13 (heliocentric ecliptic J2000)
 Element Value Uncertainty (1-sigma)   Units 
e .1733137879899124 6.6092e-08  
a 2.345155183187708 1.4432e-08 au
q 1.938707454965269 1.5229e-07 au
i 7.287738166867275 6.7529e-06 deg
node 43.52517533533714 3.958e-05 deg
peri 13.67279774161982 4.4116e-05 deg
M 196.6489766236964 1.7748e-05 deg
tp 2459595.716778264513
(2022-Jan-16.21677826)
6.7622e-05 TDB
period 1311.764295970177
3.59
1.2109e-05
3.315e-08
d
yr
n .2744395476427762 2.5334e-09 deg/d
Q 2.751602911410146 1.6934e-08 au
  Orbit Determination Parameters
   # obs. used (total)      134  
   data-arc span      8182 days (22.40 yr)  
   first obs. used      1996-11-06  
   last obs. used      2019-04-02  
   planetary ephem.      DE431  
   SB-pert. ephem.      SB431-N16  
   condition code      0  
   norm. resid. RMS      .48766  
   source      ORB  
   producer      Otto Matic  
   solution date      2020-Feb-26 06:58:58  

Additional Information
 Earth MOID = .95127 au 
 Jupiter MOID = 2.60371 au 
 T_jup = 3.530 
[ show covariance matrix ]

Ephemeris | Orbit Diagram | Orbital Elements | Mission Design | Physical Parameters | Discovery Circumstances ]

Physical Parameter Table
Parameter Symbol Value Units Sigma Reference Notes
absolute magnitude H 17.5   n/a MPO472161  

413242 (2003 SU213)          Discovered 2003-Sep-26 by Yeung, W. K. Y. at Desert Eagle
Reference: Last Updated: 2014-11-10
Ephemeris | Orbit Diagram | Orbital Elements | Mission Design | Physical Parameters | Discovery Circumstances ]
ABOUT SSD CREDITS/AWARDS PRIVACY/COPYRIGHT GLOSSARY LINKS
FirstGov 2020-Jul-09 02:13 UT
(server date/time)  
NASA Home Page
Site Manager:   Ryan S. Park
Webmaster  Alan B. Chamberlin